[[{"header":{"parameterUnit":"m.s-1","parameterCategory":1,"la1":30.2991,"la2":30.254,"lo1":-89.0895,"lo2":-89.0444,"dy":0.0017,"dx":0.0017,"nx":28,"ny":28,"refTime":"2023-09-28T03:00:00:Z","depth":0,"parameterNumber":2,"parameterNumberName":"U-component_of_WINDS"},"data":[0,0,0,0,0,0,0,0,0,0,0,0,0,0,0,0,0,0,0,0,0,0,0,0,0,0,0,0,0,0,0,0,0,0,0,0,0,0,0,0,0,0,0,0,0,0,0,0,0,0,0,0,0,0,0,0,0,0,-5.9066,-5.9067,0,-5.9186,-5.9188,-5.9189,-5.9069,-5.9065,-5.906,-5.9056,-5.918,-5.9188,-5.9195,0,0,0,0,0,0,0,0,0,0,0,0,0,-5.8733,-5.8739,-5.9065,-5.9067,-5.9069,-5.9186,-5.9188,-5.9189,-5.907,-5.9065,-5.9059,-5.9053,-5.9178,-5.9187,-5.9196,0,0,0,0,0,0,0,0,0,0,0,0,0,-5.8868,-5.8742,-5.9065,-5.9023,-5.9021,-5.9186,-5.9188,-5.919,-5.9071,-5.9064,-5.9057,-5.9051,-5.9175,-5.9186,-5.9197,-5.941,0,0,-5.9233,-5.9238,0,0,0,0,0,0,0,0,-5.886,-5.888,-5.9028,-5.9026,-5.9024,-5.9105,-5.9116,-5.9264,-5.9073,-5.9052,-5.9055,-5.9047,-5.9161,-5.9174,-5.9212,-5.9416,-5.9421,-5.9234,-5.9241,-5.9246,-5.9249,0,0,0,0,0,0,0,-5.8851,-5.8874,-5.9113,-5.903,-5.9028,-5.8999,-5.901,-5.9143,-5.9145,-5.9054,-5.9045,-5.9061,-5.9159,-5.9201,-5.9214,-5.9423,-5.9234,-5.9244,-5.9251,-5.9255,-5.9808,-5.9816,0,0,0,0,0,0,-5.8846,-5.8867,-5.9109,-5.9117,-5.8923,-5.901,-5.9023,-5.9087,-5.9143,-5.9145,-5.9067,-5.9055,-5.9185,-5.92,-5.9218,-5.947,-5.9246,-5.9257,-5.9263,-5.98,-5.981,-5.9818,0,0,0,0,0,0,-5.884,-5.8869,-5.9104,-5.899,-5.9018,-5.9024,-5.9096,-5.9093,-5.9134,-5.9153,-5.9153,-5.911,-5.918,-5.9201,-5.9363,-5.9473,-5.9262,-5.9272,-5.9791,-5.9803,-5.9814,-5.9977,0,0,0,0,0,0,-5.883,-5.8867,-5.8948,-5.8993,-5.9024,-5.9248,-5.9103,-5.91,-5.9155,-5.914,-5.9193,-5.9195,-5.9176,-5.9347,-5.9375,-5.9485,-5.9281,-5.9781,-5.9797,-5.981,-5.9962,-5.9992,-6.0019,0,0,0,0,0,-5.8819,-5.8989,-5.8953,-5.8982,-5.9125,-5.9255,-5.9273,-5.9246,-5.9164,-5.9245,-5.9257,-5.9193,-5.9456,-5.9364,-5.9395,-5.951,-5.9774,-5.9792,-5.9809,-5.9949,-5.9986,-6.0018,0,0,0,0,0,0,-5.8957,-5.8994,-5.8954,-5.9144,-5.9197,-5.9234,-5.9336,-5.9287,-5.9365,-5.9349,-5.9313,-5.9326,-5.9497,-5.952,-5.9416,-5.9719,-5.9602,-5.9626,-5.9698,-5.9734,-5.9762,-5.9752,-5.9291,0,0,0,0,0,-5.901,-5.9112,-5.9139,-5.9303,-5.9332,-5.933,-5.9385,-5.9361,-5.9414,-5.9436,-5.946,-5.9515,-5.961,-5.9673,-5.9761,-5.9965,-5.9974,-6.0059,-6.0088,-6.0111,-6.0132,-6.0241,-6.0279,-5.9875,-5.9875,-5.9875,0,0,-5.912,-5.9152,-5.9219,-5.9332,-5.937,-5.9477,-5.935,-5.9467,-5.9546,-5.9454,-5.9608,-5.9628,-5.9687,-5.987,-5.9952,-5.9894,-6.0246,-6.0133,-6.0152,-6.016,-6.0263,-6.0301,-6.0335,-5.9887,-5.9885,-5.9883,0,0,-5.9373,-5.9409,-5.9549,-5.9591,-5.965,-5.9648,-5.9682,-5.9727,-5.9736,-5.989,-5.9823,-5.9917,-6.0081,-6.0126,-6.017,-6.0442,-6.0386,-6.0472,-6.0621,-6.0728,-6.0759,-6.0787,-6.0884,-6.0919,-6.0493,-6.0494,-6.0494,0,-5.9502,-5.9659,-5.9628,-5.9751,-5.9803,-5.9725,-5.9867,-5.9909,-5.9995,-6.0032,-5.9966,-6.0171,-6.0205,-6.0397,-6.0464,-6.0503,-6.054,-6.0465,-6.0757,-6.0785,-6.0811,-6.0902,-6.0939,-6.0503,-6.0502,-6.0501,-6.05,0,-5.9814,-5.9924,-6.0031,-6.0115,-6.0179,-6.0312,-6.0301,-6.0369,-6.034,-6.0344,-6.0502,-6.0541,-6.0635,-6.068,-6.0652,-6.0869,-6.0831,-6.0763,-6.0644,-6.086,-6.0945,-6.098,-6.0518,-6.0514,-6.0511,-6.0509,0,0,-6.0157,-6.0223,-6.0263,-6.03,-6.036,-6.0445,-6.0574,-6.0666,-6.0726,-6.0788,-6.0895,-6.1036,-6.0973,-6.1023,-6.1,-6.1094,-6.1306,-6.1013,-6.1014,-6.1066,-6.1547,-6.1598,-6.1639,-6.127,-6.1277,-6.1282,-6.1542,0,-6.0411,-6.0634,-6.0611,-6.0823,-6.0925,-6.0853,-6.0965,-6.1015,-6.1023,-6.111,-6.1119,-6.122,-6.1129,-6.1159,-6.1248,-6.1262,-6.1402,-6.1243,-6.1369,-6.1374,-6.1356,-6.1684,-6.1738,-6.1981,-6.1575,-6.1581,-6.1585,0,-6.0738,-6.0811,-6.1034,-6.1079,-6.1121,-6.1222,-6.1304,-6.1389,-6.1444,-6.1444,-6.1501,-6.1461,-6.1591,-6.1472,-6.165,-6.1542,-6.1593,-6.1608,-6.1616,-6.1626,-6.1492,-6.1702,-6.2058,-6.2094,-6.1638,-6.1633,-6.163,0,-6.0964,-6.1119,-6.1272,-6.1307,-6.1363,-6.1436,-6.1463,-6.1511,-6.1568,-6.1641,-6.1678,-6.1765,-6.1813,-6.1882,-6.1868,-6.1782,-6.205,-6.1929,-6.2053,-6.2054,-6.2112,-6.2108,-6.248,-6.2147,-6.2147,-6.2146,-6.2145,0,-6.125,-6.1389,-6.1375,-6.1469,-6.1622,-6.1594,-6.1747,-6.1765,-6.1809,-6.1905,-6.1849,-6.1941,-6.1917,-6.2009,-6.1999,-6.2148,-6.217,-6.2173,-6.2169,-6.2178,-6.2177,-6.221,-6.2192,-6.2155,-6.2153,-6.2151,-6.215,0,-6.1528,-6.1524,-6.1686,-6.1727,-6.174,-6.1852,-6.1886,-6.1975,-6.1979,-6.2102,-6.213,-6.2137,-6.2241,-6.2234,-6.2353,-6.2346,-6.253,-6.2506,-6.2511,-6.2506,-6.263,-6.2618,-6.3035,-6.3088,-6.2721,-6.2725,-6.2728,0,-6.171,-6.1815,-6.1867,-6.1928,-6.196,-6.2058,-6.2116,-6.2093,-6.2156,-6.2227,-6.2308,-6.2407,-6.2485,-6.2656,-6.2672,-6.2762,-6.2739,-6.288,-6.2753,-6.2758,-6.274,-6.2734,-6.2744,-6.2904,-6.2908,-6.2911,-6.2914,0,-6.2033,-6.2026,-6.2112,-6.2198,-6.2268,-6.2335,-6.2395,-6.2448,-6.2431,-6.2505,-6.2611,-6.2672,-6.2793,-6.2892,-6.2979,-6.3007,-6.2959,-6.2954,-6.2987,-6.2997,-6.2995,-6.2997,-6.2578,-6.2944,-6.2941,-6.2939,-6.2937,-6.2936,-6.2268,-6.2358,-6.2409,-6.2506,-6.2549,-6.2607,-6.2692,-6.2707,-6.2795,-6.2891,-6.2873,-6.2992,-6.3045,-6.3156,-6.3193,-6.3286,-6.3236,-6.3285,-6.3297,-6.3309,-6.3322,-6.2982,-6.3302,-6.3301,-6.3301,-6.33,-6.3299,0,-6.2587,-6.2616,-6.2706,-6.2792,-6.2869,-6.2817,-6.2881,-6.2949,-6.3055,-6.3108,-6.3186,-6.3309,-6.3405,-6.3429,-6.3522,-6.3593,-6.3573,-6.3618,-6.3611,-6.3619,-6.3362,-6.3324,-6.3632,-6.3632,-6.3632,-6.3632,-6.3632,-6.3632,-6.2762,-6.2911,-6.291,-6.3081,-6.3109,-6.3225,-6.3266,-6.3319,-6.3362,-6.3501,-6.3581,-6.3595,-6.3637,-6.3733,-6.382,-6.3824,-6.3861,-6.3915,-6.3911,-6.367,-6.3637,-6.3605,-6.3568,-6.3923,-6.3923,-6.4159,-6.4161,-6.4163]},{"header":{"parameterUnit":"m.s-1","parameterCategory":1,"la1":30.2991,"la2":30.254,"lo1":-89.0895,"lo2":-89.0444,"dy":0.0017,"dx":0.0017,"nx":28,"ny":28,"refTime":"2023-09-28T03:00:00:Z","depth":0,"parameterNumber":3,"parameterNumberName":"V-component_of_WINDS"},"data":[0,0,0,0,0,0,0,0,0,0,0,0,0,0,0,0,0,0,0,0,0,0,0,0,0,0,0,0,0,0,0,0,0,0,0,0,0,0,0,0,0,0,0,0,0,0,0,0,0,0,0,0,0,0,0,0,0,0,-1.909,-1.909,0,-1.9068,-1.9068,-1.9068,-1.9037,-1.9037,-1.9036,-1.9036,-1.9013,-1.9013,-1.9013,0,0,0,0,0,0,0,0,0,0,0,0,0,-1.9103,-1.9103,-1.909,-1.909,-1.9089,-1.9068,-1.9068,-1.9068,-1.9037,-1.9037,-1.9036,-1.9035,-1.9013,-1.9013,-1.9013,0,0,0,0,0,0,0,0,0,0,0,0,0,-1.9091,-1.9103,-1.909,-1.9072,-1.907,-1.9068,-1.9068,-1.9067,-1.9037,-1.9037,-1.9036,-1.9035,-1.9013,-1.9013,-1.9012,-1.9027,0,0,-1.9012,-1.9012,0,0,0,0,0,0,0,0,-1.9091,-1.909,-1.9075,-1.9073,-1.9071,-1.9055,-1.9064,-1.9054,-1.9038,-1.905,-1.9036,-1.9035,-1.9027,-1.9026,-1.9023,-1.9026,-1.9025,-1.9012,-1.9012,-1.9012,-1.9012,0,0,0,0,0,0,0,-1.9092,-1.9091,-1.9081,-1.9074,-1.9072,-1.9064,-1.9061,-1.9062,-1.9043,-1.9049,-1.9046,-1.9044,-1.9026,-1.9024,-1.9023,-1.9024,-1.9012,-1.9012,-1.9012,-1.9012,-1.9035,-1.9035,0,0,0,0,0,0,-1.9096,-1.9092,-1.9082,-1.9081,-1.9079,-1.9064,-1.9061,-1.9061,-1.9043,-1.904,-1.9045,-1.9043,-1.9024,-1.9023,-1.9022,-1.9036,-1.9012,-1.9012,-1.9011,-1.9034,-1.9035,-1.9036,0,0,0,0,0,0,-1.9096,-1.9095,-1.9083,-1.9086,-1.9083,-1.9065,-1.9064,-1.9061,-1.9058,-1.904,-1.9037,-1.9046,-1.9024,-1.9022,-1.9025,-1.9034,-1.9011,-1.9011,-1.9033,-1.9034,-1.9035,-1.9065,0,0,0,0,0,0,-1.9097,-1.9096,-1.9102,-1.9086,-1.9083,-1.9087,-1.9065,-1.9061,-1.9058,-1.9055,-1.904,-1.9037,-1.9023,-1.9026,-1.9025,-1.9034,-1.9011,-1.9032,-1.9034,-1.9035,-1.9063,-1.9066,-1.907,0,0,0,0,0,-1.9098,-1.9111,-1.9102,-1.9101,-1.909,-1.9088,-1.9086,-1.907,-1.9059,-1.9064,-1.9052,-1.9038,-1.9034,-1.9026,-1.9025,-1.9034,-1.9031,-1.9033,-1.9035,-1.9061,-1.9066,-1.907,0,0,0,0,0,0,-1.9129,-1.9109,-1.9099,-1.9108,-1.91,-1.9083,-1.9089,-1.9076,-1.9071,-1.9068,-1.9048,-1.9045,-1.905,-1.9043,-1.9035,-1.9046,-1.903,-1.9032,-1.905,-1.9055,-1.9058,-1.906,-1.9011,0,0,0,0,0,-1.9137,-1.9137,-1.912,-1.9129,-1.9126,-1.9108,-1.9107,-1.9094,-1.9085,-1.9082,-1.907,-1.9061,-1.9058,-1.9056,-1.9052,-1.9061,-1.9057,-1.9067,-1.907,-1.9073,-1.9075,-1.9077,-1.908,-1.9041,-1.9041,-1.9041,0,0,-1.9154,-1.9143,-1.9144,-1.9135,-1.9128,-1.9127,-1.9106,-1.9107,-1.9106,-1.9082,-1.9084,-1.9075,-1.9063,-1.9069,-1.9071,-1.9063,-1.9084,-1.9075,-1.9078,-1.9078,-1.9079,-1.9083,-1.9086,-1.9042,-1.9042,-1.9042,0,0,-1.9183,-1.9176,-1.9182,-1.9174,-1.9163,-1.9151,-1.9152,-1.9137,-1.913,-1.9131,-1.9113,-1.9111,-1.9106,-1.9098,-1.9093,-1.9118,-1.9103,-1.9117,-1.9135,-1.9138,-1.9141,-1.9143,-1.915,-1.9153,-1.9118,-1.9118,-1.9119,0,-1.9205,-1.9205,-1.9187,-1.9189,-1.9184,-1.9162,-1.9167,-1.9161,-1.9149,-1.9146,-1.9137,-1.9128,-1.9119,-1.9122,-1.9127,-1.9125,-1.9125,-1.9118,-1.9142,-1.9144,-1.9146,-1.9153,-1.9156,-1.912,-1.912,-1.912,-1.912,0,-1.9231,-1.9231,-1.9237,-1.9225,-1.9222,-1.9225,-1.9207,-1.9206,-1.9193,-1.9182,-1.9182,-1.9171,-1.9163,-1.9162,-1.9151,-1.9163,-1.9158,-1.9146,-1.9129,-1.9152,-1.9158,-1.916,-1.9122,-1.9122,-1.9121,-1.9121,0,0,-1.9281,-1.9258,-1.926,-1.9254,-1.9238,-1.9237,-1.9239,-1.9231,-1.9229,-1.9221,-1.9221,-1.9216,-1.9204,-1.9199,-1.9186,-1.9188,-1.9206,-1.9175,-1.9175,-1.918,-1.9216,-1.9224,-1.9227,-1.9196,-1.9197,-1.9197,-1.9216,0,-1.9307,-1.9309,-1.9292,-1.9298,-1.9296,-1.9274,-1.9275,-1.9265,-1.9254,-1.925,-1.9238,-1.9234,-1.9219,-1.9216,-1.9217,-1.9203,-1.9212,-1.9202,-1.9195,-1.9195,-1.9197,-1.9231,-1.924,-1.9259,-1.9218,-1.9219,-1.9219,0,-1.9337,-1.933,-1.9336,-1.9318,-1.9317,-1.9318,-1.9308,-1.9305,-1.9293,-1.9284,-1.9278,-1.9262,-1.9261,-1.9246,-1.9244,-1.9237,-1.9233,-1.9226,-1.9226,-1.9224,-1.9208,-1.9228,-1.9264,-1.9267,-1.9223,-1.9222,-1.9222,0,-1.9371,-1.9362,-1.9364,-1.9359,-1.9339,-1.9341,-1.9332,-1.9319,-1.9315,-1.9306,-1.9302,-1.9294,-1.9289,-1.9282,-1.9264,-1.9255,-1.9263,-1.9247,-1.9255,-1.9255,-1.9257,-1.9257,-1.9292,-1.9256,-1.9256,-1.9256,-1.9256,0,-1.9401,-1.9405,-1.9379,-1.938,-1.9383,-1.9363,-1.9366,-1.9356,-1.9344,-1.9341,-1.9322,-1.932,-1.9297,-1.9292,-1.9279,-1.9277,-1.9276,-1.9268,-1.9264,-1.9269,-1.927,-1.9265,-1.9263,-1.9257,-1.9257,-1.9257,-1.9256,0,-1.9439,-1.9422,-1.9422,-1.9402,-1.9397,-1.94,-1.9383,-1.9383,-1.937,-1.9367,-1.9365,-1.9345,-1.9337,-1.9319,-1.9308,-1.9298,-1.93,-1.9294,-1.9304,-1.9302,-1.931,-1.9309,-1.9342,-1.9345,-1.9309,-1.931,-1.931,0,-1.9458,-1.9461,-1.9441,-1.9438,-1.943,-1.9426,-1.9421,-1.9401,-1.9396,-1.9381,-1.9382,-1.9373,-1.9365,-1.9355,-1.9338,-1.9329,-1.9321,-1.9333,-1.932,-1.9324,-1.9319,-1.9319,-1.9318,-1.9336,-1.9337,-1.9337,-1.9338,0,-1.9495,-1.9486,-1.9479,-1.947,-1.9464,-1.9456,-1.9446,-1.9444,-1.9421,-1.9417,-1.9409,-1.9403,-1.939,-1.9381,-1.9369,-1.9359,-1.9344,-1.9342,-1.9343,-1.9348,-1.9353,-1.9349,-1.9311,-1.9341,-1.9341,-1.9341,-1.934,-1.934,-1.9523,-1.9523,-1.9509,-1.9502,-1.9492,-1.9483,-1.9481,-1.9467,-1.9461,-1.9449,-1.9437,-1.943,-1.9416,-1.9397,-1.9388,-1.9382,-1.9374,-1.9376,-1.9376,-1.9377,-1.9378,-1.9355,-1.938,-1.938,-1.938,-1.9379,-1.9379,0,-1.9557,-1.9546,-1.954,-1.9526,-1.952,-1.9507,-1.9495,-1.949,-1.9485,-1.9472,-1.9464,-1.9455,-1.9445,-1.9428,-1.9416,-1.9415,-1.9407,-1.9412,-1.9412,-1.9409,-1.9387,-1.9386,-1.9418,-1.9418,-1.9418,-1.9418,-1.9418,-1.9418,-1.9573,-1.9572,-1.9562,-1.9555,-1.9544,-1.9537,-1.9531,-1.9522,-1.9512,-1.9502,-1.9494,-1.9482,-1.9467,-1.9454,-1.9445,-1.944,-1.9436,-1.9443,-1.9435,-1.9415,-1.9411,-1.9408,-1.9407,-1.9443,-1.9443,-1.9458,-1.9458,-1.9458]}]]